Track NAVSTAR 63 (USA 203) now! NAVSTAR 63 (USA 203) is classified as:
1 34661U 09014A 25181.49990782 .00000016 00000-0 00000-0 0 9996 2 34661 54.5584 224.7601 0137258 60.1224 266.1301 2.00563217119226